User: anonymous   Login
Location: Cimarron National Grasslands
(37.1250°N, 101.7500°W)
Time: 02:45:32
(UTC-05:00)
Language:

Ariane Rocket - Orbit

View from above orbital plane
View from above orbital plane
View from above satellite
View from above satellite

Ground track
Ground track

The orbit data is extracted from the following two-line orbital elements,

1 23561U 95021B   15146.81815780  .00000136  00000-0  60486-4 0  9997
2 23561 098.7279 122.1637 0006481 336.4013 083.7438 14.37589755 53142
Epoch (UTC): 26 May 2015 19:38:08
Eccentricity: 0.0006481
inclination: 98.7279°
perigee height: 762 km
apogee height: 771 km
right ascension of ascending node: 122.1637°
argument of perigee: 336.4013°
revolutions per day: 14.37589755
mean anomaly at epoch: 83.7438°
orbit number at epoch: 5314

The dashed part of the orbit path shows where the satellite is in the earth's shadow,  

DLR